Regional Weather Roundup
Issued by NWS

Home | Current Version | Previous Version | Graphics & Text | Print | Product List | Glossary Off
Versions: 1 2 3 4 5 6 7 8 9 10 11 12 13 14 15 16 17 18 19 20 21 22 23 24 25 26 27 28 29 30 31 32 33 34 35 36 37 38 39 40 41 42 43 44 45 46 47 48 49 50

000
ASUS43 KDMX 022107
RWRIA

WEATHER ROUNDUP FOR IOWA
NATIONAL WEATHER SERVICE DES MOINES IA
400 PM CDT SAT MAY 02 2015

NOTE: "FAIR" INDICATES FEW OR NO CLOUDS BELOW 12,000 FEET WITH NO
SIGNIFICANT WEATHER AND/OR OBSTRUCTIONS TO VISIBILITY.

* - THESE STATIONS ARE NOT NWS STATIONS...THUS NOT UNDER NWS
QUALITY CONTROL.  THEY ALSO DO NOT REPORT WEATHER SUCH
AS PRECIPITATION OR FOG.

IAZ001>003-012>014-020>022-031>034-043>046-022200-
   NORTHWEST IOWA

CITY           SKY/WX    TMP DP  RH WIND       PRES   REMARKS
CARROLL *      PTSUNNY   68  54  60 S31G41    29.84F
CHEROKEE *     MOSUNNY   73  55  53 S18G26    29.82F
DENISON *      SUNNY     70  57  64 S21G33    29.83F
LE MARS *      SUNNY     75  54  46 S14G26    29.80F
ORANGE CITY *  SUNNY     73  54  49 S21G26    29.80F
SHELDON *      SUNNY     79  50  36 S17G26    29.79F
SIOUX CITY     SUNNY     77  53  43 S16G26    29.81F
SPENCER        MOSUNNY   78  51  38 S22G31    29.82F
STORM LAKE *   SUNNY     73  52  46 S28       29.83F
$$

IAZ055>058-069>071-079>083-090>094-022200-
   SOUTHWEST IOWA

CITY           SKY/WX    TMP DP  RH WIND       PRES   REMARKS
ATLANTIC *     SUNNY     68  55  64 S23       29.88F
AUDUBON *      SUNNY     66  57  72 S16G24    29.88F
CLARINDA *     MOSUNNY   66  55  68 S16       29.92F
COUNCIL BLFS * SUNNY     70  57  64 S17G29    29.85F
CRESTON *      PTSUNNY   59  55  88 SE15      29.94F
HARLAN  *      SUNNY     70  57  64 S21G35    29.88F
LAMONI         CLOUDY    57  53  86 SE9       29.95F
RED OAK *      MOSUNNY   68  57  68 S18G24    29.88F
SHENANDOAH *   MOSUNNY   68  57  68 SE20G28   29.89F
$$

IAZ047>049-059>061-072>074-084-022200-
   CENTRAL IOWA

CITY           SKY/WX    TMP DP  RH WIND       PRES   REMARKS
AMES           PTSUNNY   70  53  54 SW16G28   29.90F
ANKENY *       SUNNY     64  55  72 SW13G23   29.91F
CHARITON *     LGT RAIN  57  57 100 S12       29.97F
DES MOINES     CLOUDY    63  54  72 SW15G28   29.91S
GRINNELL*      CLOUDY    66  52  59 SW16G24   29.95R
KNOXVILLE *    PTSUNNY   61  54  77 S20G28    29.89F
MARSHALLTOWN   PTSUNNY   68  52  56 S17G24    29.92F
PELLA *        CLOUDY    63  57  82 S15G23    29.90F
PERRY *          N/A     66  52  59 S23G32    29.86F
$$

IAZ004>006-015-016-023>025-035-036-022200-
   NORTH CENTRAL IOWA

CITY           SKY/WX    TMP DP  RH WIND       PRES   REMARKS
ALGONA *       SUNNY     77  50  38 S26G32    29.83F
CLARION *      SUNNY     77  50  38 SW15G29   29.86F
ESTHERVILLE    MOSUNNY   77  49  37 S18G31    29.80F
FORT DODGE *   SUNNY     75  52  43 SW20      29.87F
MASON CITY     PTSUNNY   77  51  40 SW21G29   29.86F
FOREST CITY *  SUNNY     73  46  38 SW16G25   29.84F
IOWA FALLS *     N/A     72  50  46 S24       29.90F
$$

IAZ007>011-017>019-026>030-037>042-050>054-066-022200-
   NORTHEAST IOWA

CITY           SKY/WX    TMP DP  RH WIND       PRES   REMARKS
CEDAR RAPIDS   PTSUNNY   73  50  44 SW24G32   29.95F
CHARLES CITY * SUNNY     75  48  38 SW17G30   29.88S
CLINTON *        N/A     75  43  31 SW20      29.97F
DECORAH *      MOSUNNY   77  48  36 SW16G29   29.87F
DUBUQUE        MOSUNNY   76  42  29 S17G28    29.93F
MONTICELLO *   MOSUNNY   75  43  31 S20G26    29.93F
OELWEIN *      SUNNY     73  50  43 SW21G28   29.91F
WATERLOO       PTSUNNY   73  51  46 SW21      29.90F
$$

IAZ064-065-067-068-078-022200-
   EAST CENTRAL IOWA

CITY           SKY/WX    TMP DP  RH WIND       PRES   REMARKS
DAVENPORT      PTSUNNY   77  38  24 SW14G24   29.96F
IOWA CITY      PTSUNNY   72  49  44 SW17      29.97F
MT. PLEASANT * CLOUDY    70  46  43 W10       30.00S
MUSCATINE *    SUNNY     75  41  29 SW13G22   29.97F
QUAD CITIES    PTSUNNY   79  41  25 S12G20    29.95F
$$

IAZ062-063-075>077-085>089-095>099-022200-
   SOUTHEAST IOWA

CITY           SKY/WX    TMP DP  RH WIND       PRES   REMARKS
BURLINGTON     CLOUDY    73  40  30 SW15      29.99F
FAIRFIELD *    PTSUNNY   66  54  63 SW12G18   30.00F
FORT MADISON * MOSUNNY   72  39  30 W7        30.01S
KEOKUK *       SUNNY     68  46  45 W8        30.00F
OSKALOOSA *    DRIZZLE   63  54  72 S17       29.95F
CENTERVILLE *    N/A     57  57 100 S9        30.01F
OTTUMWA        CLOUDY    61  54  77 S16       29.95F
WASHINGTON *   CLOUDY    70  54  56 SW18G26   29.98F
$$

ABBREVIATIONS USED IN REMARKS
   TC - TEMPERATURES IN CELSIUS
  WCI - WIND CHILL INDEX
   HX - HEAT INDEX
  VSB - VISIBILITY
$$




USA.gov is the U.S. government's official web portal to all federal, state and local government web resources and services.